"Period start","avg(HW err(1)/warn(2) (#))","avg(Visibility (m))","avg(Weather code (#))","avg(Precip intensity (mm/h))","min(HW err(1)/warn(2) (#))","max(HW err(1)/warn(2) (#))","std(HW err(1)/warn(2) (#))","med(HW err(1)/warn(2) (#))","min(Visibility (m))","max(Visibility (m))","std(Visibility (m))","med(Visibility (m))","min(Weather code (#))","max(Weather code (#))","std(Weather code (#))","med(Weather code (#))","min(Precip intensity (mm/h))","max(Precip intensity (mm/h))","std(Precip intensity (mm/h))","med(Precip intensity (mm/h))"
2016-09-29 00:00:00,2,49423,0,0.00,2,2,0,2,47055,50000,1155,50000,0,0,0,0,0.00,0.00,0.00,0.00
2016-09-29 00:10:00,2,50000,0,0.00,2,2,0,2,50000,50000,0,50000,0,0,0,0,0.00,0.00,0.00,0.00
2016-09-29 00:20:00,2,50000,0,0.00,2,2,0,2,50000,50000,0,50000,0,0,0,0,0.00,0.00,0.00,0.00
2016-09-29 00:30:00,2,50000,0,0.00,2,2,0,2,50000,50000,0,50000,0,0,0,0,0.00,0.00,0.00,0.00
2016-09-29 00:40:00,2,49158,0,0.00,2,2,0,2,42764,50000,2160,50000,0,0,0,0,0.00,0.00,0.00,0.00
2016-09-29 00:50:00,2,49986,0,0.00,2,2,0,2,49859,50000,42,50000,0,0,0,0,0.00,0.00,0.00,0.00
2016-09-29 01:00:00,2,49177,0,0.00,2,2,0,2,42697,50000,2168,50000,0,0,0,0,0.00,0.00,0.00,0.00
2016-09-29 01:10:00,2,50000,0,0.00,2,2,0,2,50000,50000,0,50000,0,0,0,0,0.00,0.00,0.00,0.00
2016-09-29 01:20:00,2,49626,0,0.00,2,2,0,2,46261,50000,1122,50000,0,0,0,0,0.00,0.00,0.00,0.00
2016-09-29 01:30:00,2,49824,0,0.00,2,2,0,2,49119,50000,294,50000,0,0,0,0,0.00,0.00,0.00,0.00
2016-09-29 01:40:00,2,49995,0,0.00,2,2,0,2,49954,50000,14,50000,0,0,0,0,0.00,0.00,0.00,0.00
2016-09-29 01:50:00,2,49660,0,0.00,2,2,0,2,47984,50000,694,50000,0,0,0,0,0.00,0.00,0.00,0.00
2016-09-29 02:00:00,2,49695,0,0.00,2,2,0,2,47433,50000,768,50000,0,0,0,0,0.00,0.00,0.00,0.00
2016-09-29 02:10:00,2,49954,0,0.00,2,2,0,2,49646,50000,107,50000,0,0,0,0,0.00,0.00,0.00,0.00
2016-09-29 02:20:00,2,49871,0,0.00,2,2,0,2,48714,50000,386,50000,0,0,0,0,0.00,0.00,0.00,0.00
2016-09-29 02:30:00,2,48989,0,0.00,2,2,0,2,43751,50000,2005,50000,0,0,0,0,0.00,0.00,0.00,0.00
2016-09-29 02:40:00,2,49841,0,0.00,2,2,0,2,48849,50000,356,50000,0,0,0,0,0.00,0.00,0.00,0.00
2016-09-29 02:50:00,2,48838,0,0.00,2,2,0,2,44641,50000,1866,50000,0,0,0,0,0.00,0.00,0.00,0.00
2016-09-29 03:00:00,2,49723,0,0.00,2,2,0,2,48414,50000,504,50000,0,0,0,0,0.00,0.00,0.00,0.00
2016-09-29 03:10:00,2,49829,0,0.00,2,2,0,2,48287,50000,514,50000,0,0,0,0,0.00,0.00,0.00,0.00
2016-09-29 03:20:00,2,49533,0,0.00,2,2,0,2,46889,50000,996,50000,0,0,0,0,0.00,0.00,0.00,0.00
2016-09-29 03:30:00,2,49343,0,0.00,2,2,0,2,44328,50000,1693,50000,0,0,0,0,0.00,0.00,0.00,0.00
2016-09-29 03:40:00,2,46640,0,0.00,2,2,0,2,30530,50000,6826,50000,0,0,0,0,0.00,0.00,0.00,0.00
2016-09-29 03:50:00,2,47614,0,0.00,2,2,0,2,38859,50000,3792,49984,0,0,0,0,0.00,0.00,0.00,0.00
2016-09-29 04:00:00,2,49756,0,0.00,2,2,0,2,47975,50000,607,50000,0,0,0,0,0.00,0.00,0.00,0.00
2016-09-29 04:10:00,2,49496,0,0.00,2,2,0,2,46942,50000,910,50000,0,0,0,0,0.00,0.00,0.00,0.00
2016-09-29 04:20:00,2,49342,0,0.00,2,2,0,2,46154,50000,1230,50000,0,0,0,0,0.00,0.00,0.00,0.00
2016-09-29 04:30:00,2,50000,0,0.00,2,2,0,2,50000,50000,0,50000,0,0,0,0,0.00,0.00,0.00,0.00
2016-09-29 04:40:00,2,49159,0,0.00,2,2,0,2,44177,50000,1714,50000,0,0,0,0,0.00,0.00,0.00,0.00
2016-09-29 04:50:00,2,49818,0,0.00,2,2,0,2,49307,50000,282,50000,0,0,0,0,0.00,0.00,0.00,0.00
2016-09-29 05:00:00,2,50000,0,0.00,2,2,0,2,50000,50000,0,50000,0,0,0,0,0.00,0.00,0.00,0.00
2016-09-29 05:10:00,2,49384,0,0.00,2,2,0,2,47234,50000,982,50000,0,0,0,0,0.00,0.00,0.00,0.00
2016-09-29 05:20:00,2,50000,0,0.00,2,2,0,2,50000,50000,0,50000,0,0,0,0,0.00,0.00,0.00,0.00
2016-09-29 05:30:00,2,49929,0,0.00,2,2,0,2,49290,50000,213,50000,0,0,0,0,0.00,0.00,0.00,0.00
2016-09-29 05:40:00,2,50000,0,0.00,2,2,0,2,50000,50000,0,50000,0,0,0,0,0.00,0.00,0.00,0.00
2016-09-29 05:50:00,2,49568,0,0.00,2,2,0,2,46209,50000,1131,50000,0,0,0,0,0.00,0.00,0.00,0.00
2016-09-29 06:00:00,2,49016,0,0.00,2,2,0,2,43099,50000,2158,50000,0,0,0,0,0.00,0.00,0.00,0.00
2016-09-29 06:10:00,2,49206,0,0.00,2,2,0,2,45637,50000,1306,50000,0,0,0,0,0.00,0.00,0.00,0.00
2016-09-29 06:20:00,2,45174,0,0.00,2,2,0,2,36565,50000,4415,45468,0,0,0,0,0.00,0.00,0.00,0.00
2016-09-29 06:30:00,2,48852,0,0.00,2,2,0,2,46764,50000,1361,49797,0,0,0,0,0.00,0.00,0.00,0.00
2016-09-29 06:40:00,2,49279,0,0.00,2,2,0,2,46452,50000,1188,50000,0,0,0,0,0.00,0.00,0.00,0.00
2016-09-29 06:50:00,2,49079,0,0.00,2,2,0,2,45717,50000,1497,50000,0,0,0,0,0.00,0.00,0.00,0.00
2016-09-29 07:00:00,2,47546,0,0.00,2,2,0,2,37984,50000,3777,50000,0,0,0,0,0.00,0.00,0.00,0.00
2016-09-29 07:10:00,2,49870,0,0.00,2,2,0,2,49018,50000,300,50000,0,0,0,0,0.00,0.00,0.00,0.00
2016-09-29 07:20:00,2,49823,0,0.00,2,2,0,2,48231,50000,531,50000,0,0,0,0,0.00,0.00,0.00,0.00
2016-09-29 07:30:00,2,50000,0,0.00,2,2,0,2,50000,50000,0,50000,0,0,0,0,0.00,0.00,0.00,0.00
2016-09-29 07:40:00,2,49702,0,0.00,2,2,0,2,47015,50000,896,50000,0,0,0,0,0.00,0.00,0.00,0.00
2016-09-29 07:50:00,2,50000,0,0.00,2,2,0,2,50000,50000,0,50000,0,0,0,0,0.00,0.00,0.00,0.00
2016-09-29 08:00:00,2,49431,0,0.00,2,2,0,2,45723,50000,1306,50000,0,0,0,0,0.00,0.00,0.00,0.00
2016-09-29 08:10:00,2,49852,0,0.00,2,2,0,2,48864,50000,345,50000,0,0,0,0,0.00,0.00,0.00,0.00
2016-09-29 08:20:00,2,50000,0,0.00,2,2,0,2,50000,50000,0,50000,0,0,0,0,0.00,0.00,0.00,0.00
2016-09-29 08:30:00,2,50000,0,0.00,2,2,0,2,50000,50000,0,50000,0,0,0,0,0.00,0.00,0.00,0.00
2016-09-29 08:40:00,2,50000,0,0.00,2,2,0,2,50000,50000,0,50000,0,0,0,0,0.00,0.00,0.00,0.00
2016-09-29 08:50:00,2,50000,0,0.00,2,2,0,2,50000,50000,0,50000,0,0,0,0,0.00,0.00,0.00,0.00
2016-09-29 09:00:00,2,50000,0,0.00,2,2,0,2,50000,50000,0,50000,0,0,0,0,0.00,0.00,0.00,0.00
2016-09-29 09:10:00,2,50000,0,0.00,2,2,0,2,50000,50000,0,50000,0,0,0,0,0.00,0.00,0.00,0.00
2016-09-29 09:20:00,2,50000,0,0.00,2,2,0,2,50000,50000,0,50000,0,0,0,0,0.00,0.00,0.00,0.00
2016-09-29 09:30:00,2,50000,0,0.00,2,2,0,2,50000,50000,0,50000,0,0,0,0,0.00,0.00,0.00,0.00
2016-09-29 09:40:00,2,50000,0,0.00,2,2,0,2,50000,50000,0,50000,0,0,0,0,0.00,0.00,0.00,0.00
2016-09-29 09:50:00,2,50000,0,0.00,2,2,0,2,50000,50000,0,50000,0,0,0,0,0.00,0.00,0.00,0.00
2016-09-29 10:00:00,2,50000,0,0.00,2,2,0,2,50000,50000,0,50000,0,0,0,0,0.00,0.00,0.00,0.00
2016-09-29 10:10:00,2,50000,0,0.00,2,2,0,2,50000,50000,0,50000,0,0,0,0,0.00,0.00,0.00,0.00
2016-09-29 10:20:00,2,50000,0,0.00,2,2,0,2,50000,50000,0,50000,0,0,0,0,0.00,0.00,0.00,0.00
2016-09-29 10:30:00,2,50000,0,0.00,2,2,0,2,50000,50000,0,50000,0,0,0,0,0.00,0.00,0.00,0.00
2016-09-29 10:40:00,2,50000,0,0.00,2,2,0,2,50000,50000,0,50000,0,0,0,0,0.00,0.00,0.00,0.00
2016-09-29 10:50:00,2,50000,0,0.00,2,2,0,2,50000,50000,0,50000,0,0,0,0,0.00,0.00,0.00,0.00
2016-09-29 11:00:00,2,50000,0,0.00,2,2,0,2,50000,50000,0,50000,0,0,0,0,0.00,0.00,0.00,0.00
2016-09-29 11:10:00,2,50000,0,0.00,2,2,0,2,50000,50000,0,50000,0,0,0,0,0.00,0.00,0.00,0.00
2016-09-29 11:20:00,2,50000,0,0.00,2,2,0,2,50000,50000,0,50000,0,0,0,0,0.00,0.00,0.00,0.00
2016-09-29 11:30:00,2,50000,0,0.00,2,2,0,2,50000,50000,0,50000,0,0,0,0,0.00,0.00,0.00,0.00
2016-09-29 11:40:00,2,50000,0,0.00,2,2,0,2,50000,50000,0,50000,0,0,0,0,0.00,0.00,0.00,0.00
2016-09-29 11:50:00,2,50000,0,0.00,2,2,0,2,50000,50000,0,50000,0,0,0,0,0.00,0.00,0.00,0.00
2016-09-29 12:00:00,2,50000,0,0.00,2,2,0,2,50000,50000,0,50000,0,0,0,0,0.00,0.00,0.00,0.00
2016-09-29 12:10:00,2,50000,0,0.00,2,2,0,2,50000,50000,0,50000,0,0,0,0,0.00,0.00,0.00,0.00
2016-09-29 12:20:00,2,50000,0,0.00,2,2,0,2,50000,50000,0,50000,0,0,0,0,0.00,0.00,0.00,0.00
2016-09-29 12:30:00,2,50000,0,0.00,2,2,0,2,50000,50000,0,50000,0,0,0,0,0.00,0.00,0.00,0.00
2016-09-29 12:40:00,2,50000,0,0.00,2,2,0,2,50000,50000,0,50000,0,0,0,0,0.00,0.00,0.00,0.00
2016-09-29 12:50:00,2,50000,0,0.00,2,2,0,2,50000,50000,0,50000,0,0,0,0,0.00,0.00,0.00,0.00
2016-09-29 13:00:00,2,50000,0,0.00,2,2,0,2,50000,50000,0,50000,0,0,0,0,0.00,0.00,0.00,0.00
2016-09-29 13:10:00,2,50000,0,0.00,2,2,0,2,50000,50000,0,50000,0,0,0,0,0.00,0.00,0.00,0.00
2016-09-29 13:20:00,2,50000,0,0.00,2,2,0,2,50000,50000,0,50000,0,0,0,0,0.00,0.00,0.00,0.00
2016-09-29 13:30:00,2,50000,0,0.00,2,2,0,2,50000,50000,0,50000,0,0,0,0,0.00,0.00,0.00,0.00
2016-09-29 13:40:00,2,50000,0,0.00,2,2,0,2,50000,50000,0,50000,0,0,0,0,0.00,0.00,0.00,0.00
2016-09-29 13:50:00,2,50000,0,0.00,2,2,0,2,50000,50000,0,50000,0,0,0,0,0.00,0.00,0.00,0.00
2016-09-29 14:00:00,2,50000,0,0.00,2,2,0,2,50000,50000,0,50000,0,0,0,0,0.00,0.00,0.00,0.00
2016-09-29 14:10:00,2,50000,0,0.00,2,2,0,2,50000,50000,0,50000,0,0,0,0,0.00,0.00,0.00,0.00
2016-09-29 14:20:00,2,50000,0,0.00,2,2,0,2,50000,50000,0,50000,0,0,0,0,0.00,0.00,0.00,0.00
2016-09-29 14:30:00,2,50000,0,0.00,2,2,0,2,50000,50000,0,50000,0,0,0,0,0.00,0.00,0.00,0.00
2016-09-29 14:40:00,2,50000,0,0.00,2,2,0,2,50000,50000,0,50000,0,0,0,0,0.00,0.00,0.00,0.00
2016-09-29 14:50:00,2,50000,0,0.00,2,2,0,2,50000,50000,0,50000,0,0,0,0,0.00,0.00,0.00,0.00
2016-09-29 15:00:00,2,50000,0,0.00,2,2,0,2,50000,50000,0,50000,0,0,0,0,0.00,0.00,0.00,0.00
2016-09-29 15:10:00,2,50000,0,0.00,2,2,0,2,50000,50000,0,50000,0,0,0,0,0.00,0.00,0.00,0.00
2016-09-29 15:20:00,2,50000,0,0.00,2,2,0,2,50000,50000,0,50000,0,0,0,0,0.00,0.00,0.00,0.00
2016-09-29 15:30:00,2,50000,0,0.00,2,2,0,2,50000,50000,0,50000,0,0,0,0,0.00,0.00,0.00,0.00
2016-09-29 15:40:00,2,50000,0,0.00,2,2,0,2,50000,50000,0,50000,0,0,0,0,0.00,0.00,0.00,0.00
2016-09-29 15:50:00,2,50000,0,0.00,2,2,0,2,50000,50000,0,50000,0,0,0,0,0.00,0.00,0.00,0.00
2016-09-29 16:00:00,2,50000,0,0.00,2,2,0,2,50000,50000,0,50000,0,0,0,0,0.00,0.00,0.00,0.00
2016-09-29 16:10:00,2,50000,0,0.00,2,2,0,2,50000,50000,0,50000,0,0,0,0,0.00,0.00,0.00,0.00
2016-09-29 16:20:00,2,50000,0,0.00,2,2,0,2,50000,50000,0,50000,0,0,0,0,0.00,0.00,0.00,0.00
2016-09-29 16:30:00,2,50000,0,0.00,2,2,0,2,50000,50000,0,50000,0,0,0,0,0.00,0.00,0.00,0.00
2016-09-29 16:40:00,2,50000,0,0.00,2,2,0,2,50000,50000,0,50000,0,0,0,0,0.00,0.00,0.00,0.00
2016-09-29 16:50:00,2,50000,0,0.00,2,2,0,2,50000,50000,0,50000,0,0,0,0,0.00,0.00,0.00,0.00
2016-09-29 17:00:00,2,50000,0,0.00,2,2,0,2,50000,50000,0,50000,0,0,0,0,0.00,0.00,0.00,0.00
2016-09-29 17:10:00,2,50000,0,0.00,2,2,0,2,50000,50000,0,50000,0,0,0,0,0.00,0.00,0.00,0.00
2016-09-29 17:20:00,2,50000,0,0.00,2,2,0,2,50000,50000,0,50000,0,0,0,0,0.00,0.00,0.00,0.00
2016-09-29 17:30:00,2,50000,0,0.00,2,2,0,2,50000,50000,0,50000,0,0,0,0,0.00,0.00,0.00,0.00
2016-09-29 17:40:00,2,50000,0,0.00,2,2,0,2,50000,50000,0,50000,0,0,0,0,0.00,0.00,0.00,0.00
2016-09-29 17:50:00,2,50000,0,0.00,2,2,0,2,50000,50000,0,50000,0,0,0,0,0.00,0.00,0.00,0.00
2016-09-29 18:00:00,2,50000,0,0.00,2,2,0,2,50000,50000,0,50000,0,0,0,0,0.00,0.00,0.00,0.00
2016-09-29 18:10:00,2,50000,0,0.00,2,2,0,2,50000,50000,0,50000,0,0,0,0,0.00,0.00,0.00,0.00
2016-09-29 18:20:00,2,50000,0,0.00,2,2,0,2,50000,50000,0,50000,0,0,0,0,0.00,0.00,0.00,0.00
2016-09-29 18:30:00,2,50000,0,0.00,2,2,0,2,50000,50000,0,50000,0,0,0,0,0.00,0.00,0.00,0.00
2016-09-29 18:40:00,2,50000,0,0.00,2,2,0,2,50000,50000,0,50000,0,0,0,0,0.00,0.00,0.00,0.00
2016-09-29 18:50:00,2,50000,0,0.00,2,2,0,2,50000,50000,0,50000,0,0,0,0,0.00,0.00,0.00,0.00
2016-09-29 19:00:00,2,50000,0,0.00,2,2,0,2,50000,50000,0,50000,0,0,0,0,0.00,0.00,0.00,0.00
2016-09-29 19:10:00,2,50000,0,0.00,2,2,0,2,50000,50000,0,50000,0,0,0,0,0.00,0.00,0.00,0.00
2016-09-29 19:20:00,2,50000,0,0.00,2,2,0,2,50000,50000,0,50000,0,0,0,0,0.00,0.00,0.00,0.00
2016-09-29 19:30:00,2,50000,0,0.00,2,2,0,2,50000,50000,0,50000,0,0,0,0,0.00,0.00,0.00,0.00
2016-09-29 19:40:00,2,50000,0,0.00,2,2,0,2,50000,50000,0,50000,0,0,0,0,0.00,0.00,0.00,0.00
2016-09-29 19:50:00,2,50000,0,0.00,2,2,0,2,50000,50000,0,50000,0,0,0,0,0.00,0.00,0.00,0.00
2016-09-29 20:00:00,2,50000,0,0.00,2,2,0,2,50000,50000,0,50000,0,0,0,0,0.00,0.00,0.00,0.00
2016-09-29 20:10:00,2,50000,0,0.00,2,2,0,2,50000,50000,0,50000,0,0,0,0,0.00,0.00,0.00,0.00
2016-09-29 20:20:00,2,50000,0,0.00,2,2,0,2,50000,50000,0,50000,0,0,0,0,0.00,0.00,0.00,0.00
2016-09-29 20:30:00,2,50000,0,0.00,2,2,0,2,50000,50000,0,50000,0,0,0,0,0.00,0.00,0.00,0.00
2016-09-29 20:40:00,2,50000,0,0.00,2,2,0,2,50000,50000,0,50000,0,0,0,0,0.00,0.00,0.00,0.00
2016-09-29 20:50:00,2,50000,0,0.00,2,2,0,2,50000,50000,0,50000,0,0,0,0,0.00,0.00,0.00,0.00
2016-09-29 21:00:00,2,50000,0,0.00,2,2,0,2,50000,50000,0,50000,0,0,0,0,0.00,0.00,0.00,0.00
2016-09-29 21:10:00,2,50000,0,0.00,2,2,0,2,50000,50000,0,50000,0,0,0,0,0.00,0.00,0.00,0.00
2016-09-29 21:20:00,2,50000,0,0.00,2,2,0,2,50000,50000,0,50000,0,0,0,0,0.00,0.00,0.00,0.00
2016-09-29 21:30:00,2,50000,0,0.00,2,2,0,2,50000,50000,0,50000,0,0,0,0,0.00,0.00,0.00,0.00
2016-09-29 21:40:00,2,50000,0,0.00,2,2,0,2,50000,50000,0,50000,0,0,0,0,0.00,0.00,0.00,0.00
2016-09-29 21:50:00,2,50000,0,0.00,2,2,0,2,50000,50000,0,50000,0,0,0,0,0.00,0.00,0.00,0.00
2016-09-29 22:00:00,2,50000,0,0.00,2,2,0,2,50000,50000,0,50000,0,0,0,0,0.00,0.00,0.00,0.00
2016-09-29 22:10:00,2,50000,0,0.00,2,2,0,2,50000,50000,0,50000,0,0,0,0,0.00,0.00,0.00,0.00
2016-09-29 22:20:00,2,50000,0,0.00,2,2,0,2,50000,50000,0,50000,0,0,0,0,0.00,0.00,0.00,0.00
2016-09-29 22:30:00,2,50000,0,0.00,2,2,0,2,50000,50000,0,50000,0,0,0,0,0.00,0.00,0.00,0.00
2016-09-29 22:40:00,2,50000,0,0.00,2,2,0,2,50000,50000,0,50000,0,0,0,0,0.00,0.00,0.00,0.00
2016-09-29 22:50:00,2,49803,0,0.00,2,2,0,2,48028,50000,592,50000,0,0,0,0,0.00,0.00,0.00,0.00
2016-09-29 23:00:00,2,48646,0,0.00,2,2,0,2,43856,50000,1962,50000,0,0,0,0,0.00,0.00,0.00,0.00
2016-09-29 23:10:00,2,46766,0,0.00,2,2,0,2,36891,50000,4155,49016,0,0,0,0,0.00,0.00,0.00,0.00
2016-09-29 23:20:00,2,46965,0,0.00,2,2,0,2,38673,50000,4508,50000,0,0,0,0,0.00,0.00,0.00,0.00
2016-09-29 23:30:00,2,43546,0,0.00,2,2,0,2,27071,50000,6529,44632,0,0,0,0,0.00,0.00,0.00,0.00
2016-09-29 23:40:00,2,43888,0,0.00,2,2,0,2,38594,50000,3694,43752,0,0,0,0,0.00,0.00,0.00,0.00
2016-09-29 23:50:00,2,48752,0,0.00,2,2,0,2,38704,50000,3362,50000,0,0,0,0,0.00,0.00,0.00,0.00
